TimeMDT,TemperatureF,Dew PointF,Humidity,Sea Level PressureIn,VisibilityMPH,Wind Direction,Wind SpeedMPH,Gust SpeedMPH,PrecipitationIn,Events,Conditions,WindDirDegrees,DateUTC
12:53 AM,48.0,34.0,58,29.66,10.0,NW,18.4,-,N/A,,Clear,320,2012-10-21 06:53:00
1:53 AM,42.1,32.0,67,29.70,10.0,WNW,23.0,-,N/A,,Clear,290,2012-10-21 07:53:00
2:53 AM,39.9,32.0,73,29.73,10.0,WNW,19.6,28.8,N/A,,Clear,290,2012-10-21 08:53:00
3:53 AM,39.0,32.0,76,29.76,10.0,WNW,16.1,-,N/A,,Partly Cloudy,300,2012-10-21 09:53:00
4:53 AM,39.9,32.0,73,29.77,10.0,WNW,13.8,-,N/A,,Overcast,300,2012-10-21 10:53:00
5:53 AM,37.9,32.0,79,29.80,10.0,West,3.5,-,0.00,,Mostly Cloudy,260,2012-10-21 11:53:00
6:46 AM,37.4,30.2,75,29.85,10.0,North,6.9,-,N/A,,Mostly Cloudy,360,2012-10-21 12:46:00
6:53 AM,37.0,30.9,79,29.83,10.0,NNW,4.6,-,N/A,,Mostly Cloudy,330,2012-10-21 12:53:00
7:53 AM,36.0,30.0,79,29.86,10.0,WNW,3.5,-,N/A,,Clear,300,2012-10-21 13:53:00
8:53 AM,39.0,32.0,76,29.88,10.0,NNW,3.5,-,N/A,,Clear,330,2012-10-21 14:53:00
9:53 AM,42.1,32.0,67,29.87,10.0,Calm,Calm,-,N/A,,Mostly Cloudy,0,2012-10-21 15:53:00
10:53 AM,42.1,32.0,67,29.89,10.0,Calm,Calm,-,N/A,,Overcast,0,2012-10-21 16:53:00
11:53 AM,44.1,33.1,65,29.87,10.0,WNW,3.5,-,N/A,,Scattered Clouds,290,2012-10-21 17:53:00
1:53 PM,48.0,33.1,56,29.85,10.0,Calm,Calm,-,N/A,,Clear,0,2012-10-21 19:53:00
2:53 PM,48.9,33.1,54,29.84,10.0,Calm,Calm,-,N/A,,Clear,0,2012-10-21 20:53:00
3:53 PM,50.0,33.1,52,29.83,10.0,Calm,Calm,-,N/A,,Clear,0,2012-10-21 21:53:00
4:53 PM,51.1,33.1,50,29.82,10.0,Variable,3.5,-,N/A,,Overcast,0,2012-10-21 22:53:00
5:53 PM,50.0,33.1,52,29.83,10.0,Calm,Calm,-,N/A,,Overcast,0,2012-10-21 23:53:00
6:53 PM,50.0,32.0,50,29.83,10.0,NNW,4.6,-,N/A,,Overcast,330,2012-10-22 00:53:00
7:53 PM,50.0,33.1,52,29.86,10.0,WNW,8.1,-,N/A,,Overcast,300,2012-10-22 01:53:00
8:53 PM,48.0,35.1,61,29.85,10.0,NW,4.6,-,N/A,,Partly Cloudy,320,2012-10-22 02:53:00
9:53 PM,46.9,36.0,66,29.85,10.0,WNW,9.2,-,N/A,,Overcast,290,2012-10-22 03:53:00
10:53 PM,43.0,34.0,71,29.85,10.0,WNW,5.8,-,N/A,,Clear,300,2012-10-22 04:53:00
11:53 PM,41.0,33.1,73,29.84,10.0,West,4.6,-,N/A,,Clear,260,2012-10-22 05:53:00